Craig, CO

5:40 PM MST on November 13, 2019 (GMT -0700)
Craig-Moffat

Weather History for KCAG - October, 2019

Change the Weather History Date:

Wednesday, October 23, 2019

  Actual Average Record
Temperature  
Mean Temperature 32 °F 40 °F  
Max Temperature 48 °F 57 °F 75 °F (2003)
Min Temperature 17 °F 24 °F 12 °F (1999)
Degree Days  
Heating Degree Days 32 25  
Month to date heating degree days 546 469  
Since 1 July heating degree days 742 834  
Cooling Degree Days 0 0  
Month to date cooling degree days 0 0  
Year to date cooling degree days 246 142  
Moisture  
Dew Point 28 °F    
Average Humidity 83    
Maximum Humidity 100    
Minimum Humidity 48    
Precipitation  
Precipitation T in 0.05 in 0.31 in (2018)
Month to date precipitation 0.38 1.27  
Year to date precipitation 12.06 13.23  
Sea Level Pressure  
Sea Level Pressure 30.23 in    
Wind  
Wind Speed 6 mph ()    
Max Wind Speed 24 mph    
Max Gust Speed 33 mph    
Visibility 7.0 miles    
Events Fog , Snow    
T = Trace of Precipitation, MM = Missing Value Source: Averaged Metar Reports

Daily Weather History Graph

Daily Weather History Graph

Search for Another Location

Airport or City:

Astronomy

Oct. 23, 2019 Rise Set
Actual Time 7:29 AM MDT 6:18 PM MDT
Civil Twilight 7:01 AM MDT 6:46 PM MDT
Nautical Twilight 6:29 AM MDT 7:18 PM MDT
Astronomical Twilight 5:58 AM MDT 7:49 PM MDT
Moon 1:50 AM MDT (10/23) 4:12 PM MDT (10/23)
Length of Visible Light 11h 44m
Length of Day
10h 49m
Waning Crescent, 26% of the Moon is Illuminated
Oct 23
Waning Crescent
Oct 27
New
Nov 4
First Quarter
Nov 12
Full
Nov 19
Last Quarter

Hourly Weather History & Observations

Time (MDT) Temp. Windchill Dew Point Humidity Pressure Visibility Wind Dir Wind Speed Gust Speed Precip Events Conditions
12:53 AM 32.0 °F 28.7 °F 28.9 °F 88% 30.15 in 10.0 mi SSE 3.5 mph - N/A   Partly Cloudy
1:53 AM 28.9 °F - 27.0 °F 92% 30.17 in 10.0 mi Calm Calm - N/A   Clear
2:53 AM 30.9 °F - 28.9 °F 92% 30.16 in 10.0 mi Calm Calm - N/A   Scattered Clouds
3:53 AM 30.0 °F 25.2 °F 28.0 °F 92% 30.17 in 10.0 mi North 4.6 mph - N/A   Clear
4:53 AM 30.0 °F - 28.0 °F 92% 30.17 in 10.0 mi Calm Calm - N/A   Mostly Cloudy
5:53 AM 33.1 °F 27.7 °F 28.0 °F 82% 30.20 in 10.0 mi West 5.8 mph - N/A   Mostly Cloudy
6:53 AM 37.0 °F 30.4 °F 28.0 °F 70% 30.18 in 10.0 mi WSW 9.2 mph - N/A   Overcast
7:53 AM 37.0 °F 30.4 °F 28.9 °F 73% 30.17 in 10.0 mi SSW 9.2 mph - N/A   Overcast
8:53 AM 37.0 °F - 30.9 °F 79% 30.17 in 10.0 mi Calm Calm - N/A   Mostly Cloudy
9:53 AM 46.9 °F - 28.0 °F 48% 30.12 in 10.0 mi WSW 17.3 mph - N/A   Partly Cloudy
11:53 AM 39.9 °F 32.5 °F 30.0 °F 68% 30.20 in 10.0 mi North 12.7 mph 21.9 mph N/A   Overcast
12:53 PM 37.9 °F 33.5 °F 28.0 °F 68% 30.24 in 10.0 mi Variable 5.8 mph - 0.00 in Snow Light Snow
1:17 PM 37.9 °F 33.5 °F 28.9 °F 70% 30.18 in 10.0 mi SSW 5.8 mph - 0.00 in   Overcast
1:53 PM 39.9 °F 34.5 °F 26.1 °F 58% 30.21 in 10.0 mi NW 8.1 mph - 0.00 in   Overcast
2:23 PM 37.0 °F 28.1 °F 28.9 °F 73% 30.18 in 10.0 mi North 15.0 mph 23.0 mph N/A   Overcast
2:37 PM 35.1 °F 24.5 °F 30.0 °F 82% 30.18 in 2.5 mi NNW 18.4 mph 24.2 mph 0.00 in Snow Light Snow
2:53 PM 34.0 °F 29.8 °F 30.0 °F 85% 30.25 in 6.0 mi NW 4.6 mph - 0.00 in Snow Light Snow
3:53 PM 35.1 °F 30.1 °F 30.0 °F 82% 30.24 in 10.0 mi South 5.8 mph - 0.00 in   Overcast
4:53 PM 37.0 °F 29.3 °F 26.1 °F 65% 30.24 in 10.0 mi South 11.5 mph - N/A   Overcast
5:53 PM 35.1 °F 25.9 °F 28.0 °F 76% 30.26 in 9.0 mi SSE 13.8 mph - 0.00 in   Overcast
6:53 PM 33.1 °F 24.9 °F 27.0 °F 78% 30.25 in 10.0 mi SSW 10.4 mph - N/A   Overcast
7:32 PM 32.0 °F 24.2 °F 28.0 °F 85% 30.25 in 4.0 mi NNW 9.2 mph - 0.00 in Snow Light Snow
7:34 PM 32.0 °F 24.2 °F 28.0 °F 85% 30.25 in 3.0 mi NNW 9.2 mph - 0.00 in Snow Light Snow
7:37 PM 32.0 °F 25.6 °F 28.0 °F 85% 30.25 in 2.5 mi North 6.9 mph - 0.00 in Snow Light Snow
7:41 PM 32.0 °F 25.6 °F 28.9 °F 88% 30.25 in 1.8 mi NNW 6.9 mph - 0.00 in Snow Light Snow
7:49 PM 30.2 °F - 28.4 °F 93% 30.25 in 1.0 mi Calm Calm - 0.00 in Snow Light Snow
7:53 PM 30.9 °F - 28.9 °F 92% 30.30 in 0.8 mi Calm Calm - 0.00 in Snow Light Snow
8:02 PM 30.9 °F 27.5 °F 28.9 °F 92% 30.25 in 1.0 mi West 3.5 mph - 0.00 in Snow Light Snow
8:10 PM 30.9 °F 27.5 °F 28.9 °F 92% 30.26 in 0.5 mi West 3.5 mph - 0.00 in Fog , Snow Snow
8:21 PM 30.9 °F - 30.0 °F 96% 30.25 in 0.5 mi Calm Calm - 0.00 in Fog , Snow Snow
8:34 PM 30.9 °F 22.8 °F 28.9 °F 92% 30.25 in 1.2 mi East 9.2 mph - 0.00 in Snow Light Snow
8:50 PM 30.2 °F 20.8 °F 28.4 °F 93% 30.24 in 4.0 mi ESE 11.5 mph - 0.00 in Snow Light Snow
8:53 PM 30.9 °F 20.7 °F 28.0 °F 89% 30.29 in 5.0 mi ESE 13.8 mph 24.2 mph 0.00 in Snow Light Snow
9:53 PM 26.1 °F 18.4 °F 24.1 °F 92% 30.29 in 10.0 mi WNW 6.9 mph - 0.00 in   Scattered Clouds
10:53 PM 23.0 °F 14.7 °F 21.0 °F 92% 30.36 in 10.0 mi SSW 6.9 mph - N/A   Clear
11:53 PM 19.9 °F 14.9 °F 19.0 °F 96% 30.38 in 10.0 mi WSW 3.5 mph - N/A   Clear